SCP
0 0 0 0 0 0 0 0 0 0 0 0 0 0 0 0 0 0 0 0 0 0 0 0 0 0 0 0 0 0 0 0 0 0 0 0 0 0 0 0 0 0 0
0 0 0 0 0 0 0 0 0 0 0 0 0 0 0 0 0 0 0 0 0 0 0 0 0 0 0 0 0 0 0 0 0 0 0 0 0 0 0 0 0 0 0
0 0 0 0 0 0 0 0 0 0 0 0 0 0 0 0 0 0 0 0 0 0 0 0 0 0 0 0 0 0 0 0 0 0 0 0 0 0 0 0 0 0 0
0 0 0 0 0 0 0 0 0 0 0 0 0 0 0 0 0 0 0 0 0 0 0 0 0 0 0 0 0 0 0 0 0 0 0 0 0 0 0 0 0 0 0
0 0 0 0 0 0 0 0 0 0 0 0 0 0 0 0 0 0 0 0 0 0 0 0 0 0 0 0 0 0 0 0 0 0 0 0 0 0 0 0 0 0 0
0 0 0 0 0 0 0 0 0 0 0 0 0 0 0 0 0 0 0 0 0 0 0 0 0 0 0 0 0 0 0 0 0 0 0 0 0 0 0 0 0 0 0
0 0 0 0 0 0 0 0 0 0 0 0 0 0 0 0 0 0 0 0 0 0 0 0 0 0 0 0 0 0 0 0 0 0 0 0 0 0 0 0 0 0 0
0 0 0 0 0 0 0 0 0 0 0 0 0 0 0 0 0 0 0 0 0 0 0 0 0 0 0 0 0 0 0 0 0 0 0 0 0 0 0 0 0 0 0
0 0 0 0 0 0 0 0 0 0 0 0 0 0 0 0 0 0 0 0 0 0 0 0 0 0 0 0 0 0 0 0 0 0 0 0 0 0 0 0 0 0 0
0 0 0 0 0 0 0 0 0 0 0 0 0 0 0 0 0 0 0 0 0 0 0 0 0 0 0 0 0 0 0 0 0 0 0 0 0 0 0 0 0 0 0
0 0 0 0 0 0 0 0 0 0 0 0 0 0 0 0 0 0 0 0 0 0 0 0 0 0 0 0 0 0 0 0 0 0 0 0 0 0 0 0 0 0 0
0 0 0 0 0 0 0 0 0 0 0 0 0 0 0 0 0 0 0 0 0 0 0 0 0 0 0 0 0 0 0 0 0 0 0 0 0 0 0 0 0 0 0
0 0 0 0 0 0 0 0 0 0 0 0 0 0 0 0 0 0 0 0 0 0 0 0 0 0 0 0 0 0 0 0 0 0 0 0 0 0 0 0 0 0 0
0 0 0 0 0 0 0 0 0 0 0 0 0 0 0 0 0 0 0 0 0 0 0 0 0 0 0 0 0 0 0 0 0 0 0 0 0 0 0 0 0 0 0
0 0 0 0 0 0 0 0 0 0 0 0 0 0 0 0 0 0 0 0 0 0 0 0 0 0 0 0 0 0 0 0 0 0 0 0 0 0 0 0 0 0 0
0 0 0 0 0 0 0 0 0 0 0 0 0 0 0 0 0 0 0 0 0 0 0 0 0 0 0 0 0 0 0 0 0 0 0 0 0 0 0 0 0 0 0
0 0 0 0 0 0 0 0 0 0 0 0 0 0 0 0 0 0 0 0 0 0 0 0 0 0 0 0 0 0 0 0 0 0 0 0 0 0 0 0 0 0 0
0 0 0 0 0 0 0 0 0 0 0 0 0 0 0 0 0 0 0 0 0 0 0 0 0 0 0 0 0 0 0 0 0 0 0 0 0 0 0 0 0 0 0
0 0 0 0 0 0 0 0 0 0 0 0 0 0 0 0 0 0 0 0 0 0 0 0 0 0 0 0 0 0 0 0 0 0 0 0 0 0 0 0 0 0 0
0 0 0 0 0 0 0 0 0 0 0 0 0 0 0 0 0 0 0 0 0 0 0 0 0 0 0 0 0 0 0 0 0 0 0 0 0 0 0 0 0 0 0
0 0 0 0 0 0 0 0 0 0 0 0 0 0 0 0 0 0 0 0 0 0 0 0 0 0 0 0 0 0 0 0 0 0 0 0 0 0 0 0 0 0 0
0 0 0 0 0 0 0 0 0 0 0 0 0 0 0 0 0 0 0 0 0 0 0 0 0 0 0 0 0 0 0 0 0 0 0 0 0 0 0 0 0 0 0
0 0 0 0 0 0 0 0 0 0 0 0 0 0 0 0 0 0 0 0 0 0 0 0 0 0 0 0 0 0 0 0 0 0 0 0 0 0 0 0 0 0 0
0 0 0 0 0 0 0 0 0 0 0 0 0 0 0 0 0 0 0 0 0 0 0 0 0 0 0 0 0 0 0 0 0 0 0 0 0 0 0 0 0 0 0
0 0 0 0 0 0 0 0 0 0 0 0 0 0 0 0 0 0 0 0 0 0 0 0 0 0 0 0 0 0 0 0 0 0 0 0 0 0 0 0 0 0 0
0 0 0 0 0 0 0 0 0 0 0 0 0 0 0 0 0 0 0 0 0 0 0 0 0 0 0 0 0 0 0 0 0 0 0 0 0 0 0 0 0 0 0
Wind_Speed_500mb
94 93 87 82 79 75 73 72 68 61 56 55 52 52 50 49 49 48 44 42 45 41 41 45 49 35 43 39 38 32 32 31 34 39 39 33 34 38 37 35 39 40 44
74 81 79 73 72 69 65 63 65 62 59 56 56 55 54 51 45 48 47 45 44 41 41 39 32 40 42 40 34 29 29 27 33 34 32 30 29 35 27 32 32 34 44
69 70 70 67 66 62 60 60 61 61 60 59 58 55 49 46 47 48 45 46 46 42 40 35 36 35 38 31 28 32 28 28 29 29 27 26 29 23 26 25 26 30 29
53 58 63 63 61 58 55 57 57 57 56 54 49 47 44 45 46 47 48 45 43 45 38 37 35 38 32 36 34 31 26 24 26 28 23 24 19 22 21 20 25 32 37
55 59 61 60 58 56 53 52 50 47 45 44 45 46 45 43 40 43 43 43 44 38 35 40 33 20 23 22 21 20 21 23 19 19 14 17 18 17 21 23 36 34 42
50 52 55 56 54 52 50 48 45 43 43 43 44 43 40 38 40 38 38 39 40 36 34 22 19 20 13 9 9 9 9 6 8 10 12 12 12 13 19 27 33 39 46
49 48 50 50 50 48 46 44 42 39 37 35 34 33 31 32 34 38 39 36 33 28 25 20 16 18 17 14 3 9 13 7 9 12 11 7 12 17 26 32 32 39 42
52 51 52 51 50 48 46 43 40 38 35 33 33 32 30 30 32 31 29 26 22 22 23 25 24 19 14 0 5 9 8 8 13 9 8 10 21 29 27 31 40 47 51
57 58 58 55 53 50 46 43 40 38 37 35 32 31 30 29 32 32 30 31 31 28 26 21 13 12 11 5 4 7 13 14 11 10 15 23 29 30 35 42 47 51 56
63 60 56 52 48 46 45 44 42 40 39 39 40 38 36 32 36 36 33 33 31 26 21 16 16 15 10 7 9 13 13 13 16 20 28 32 37 41 47 46 47 49 51
64 59 56 53 51 49 48 46 46 46 46 44 43 42 36 36 38 37 37 31 24 21 18 19 18 16 13 14 13 13 14 18 26 30 35 41 45 45 44 43 44 45 47
66 63 60 58 57 54 51 51 51 50 50 48 47 46 45 43 36 35 31 28 26 23 21 24 24 22 20 18 17 15 19 24 28 35 40 42 41 41 42 40 41 42 44
69 66 63 62 58 56 55 55 56 57 55 54 51 49 46 43 41 36 33 29 27 24 23 22 21 20 18 16 15 15 20 29 31 33 35 37 39 42 45 46 46 48 46
76 72 68 65 62 60 60 58 58 60 58 55 54 50 49 49 46 42 37 33 31 28 25 23 19 17 16 16 17 20 21 23 25 27 30 33 36 39 42 46 47 49 52
82 79 74 71 68 67 64 63 60 55 51 55 52 50 54 51 45 38 33 30 26 24 22 20 17 16 14 12 14 15 17 18 22 25 28 32 36 39 40 42 45 48 49
92 86 81 80 76 74 73 68 57 49 47 42 41 41 45 43 44 40 33 28 27 22 18 15 14 12 10 11 12 15 18 22 24 27 32 35 36 37 38 40 42 43 44
99 96 91 88 80 83 82 78 77 67 58 53 50 50 46 45 44 41 37 34 29 23 19 16 14 12 11 11 12 16 20 24 27 29 31 33 35 37 38 40 41 42 43
100 96 94 89 87 89 88 85 80 81 78 69 61 54 49 46 45 42 39 34 29 24 19 16 12 11 9 10 13 16 19 21 23 26 28 32 35 37 38 40 42 45 47
100 96 94 90 89 92 89 87 82 81 81 79 72 64 59 55 51 45 40 30 25 20 16 11 8 6 6 8 11 15 18 21 24 27 31 35 38 40 41 42 43 44 45
93 92 93 92 93 96 91 87 83 84 82 76 76 67 64 56 54 47 37 28 21 16 11 8 6 3 6 9 13 17 21 24 27 30 35 38 39 39 41 43 43 45 44
94 94 96 96 102 94 93 87 87 85 82 78 69 65 61 58 52 42 34 27 23 19 14 10 6 5 7 11 15 20 24 28 31 34 38 42 42 41 42 43 44 42 43
95 97 99 98 98 96 92 90 90 87 83 80 78 71 62 55 47 40 37 32 26 19 14 8 5 6 11 16 21 25 29 33 35 37 39 41 43 45 44 41 40 41 41
92 94 97 100 98 98 94 92 91 91 87 82 75 72 67 58 51 46 37 30 23 16 9 6 6 11 16 22 27 31 36 38 40 42 42 43 44 44 43 41 40 39 39
87 92 100 101 99 98 100 97 95 90 85 80 75 69 62 56 49 43 36 29 20 12 8 8 11 16 23 28 33 37 39 42 44 45 45 46 45 43 42 42 39 38 39
87 93 99 99 104 106 104 99 94 89 84 77 73 68 62 54 47 38 31 24 18 12 9 11 17 22 28 33 37 40 42 45 45 45 45 45 45 43 41 40 40 37 36
87 93 98 103 105 103 101 101 96 89 81 74 68 62 57 49 41 33 24 19 14 10 11 16 21 27 31 35 38 41 44 44 44 45 47 46 44 42 41 40 39 40 38
Wind_Direction_500mb
241 240 239 237 237 239 241 242 242 243 244 245 245 244 244 244 245 248 249 251 254 261 265 266 268 270 273 278 282 277 279 275 279 284 287 296 288 288 306 307 291 281 272
241 236 236 235 235 239 242 241 238 238 242 242 242 243 243 244 241 245 248 244 254 252 257 265 264 268 265 273 274 278 277 274 271 282 284 291 291 291 309 306 288 276 268
235 231 227 228 232 234 234 232 232 234 237 239 240 242 242 238 241 241 243 253 247 246 249 255 254 259 269 266 256 271 264 267 268 274 275 283 292 293 302 292 285 288 286
220 219 221 223 226 229 230 229 229 230 232 235 238 239 231 234 236 241 240 248 242 252 252 251 261 274 270 264 265 277 271 268 268 270 274 284 281 294 300 311 313 298 287
218 218 221 222 223 221 223 225 226 226 229 233 234 233 232 230 230 237 238 237 243 237 244 262 270 259 272 273 281 279 278 272 261 265 275 291 295 312 320 319 310 299 301
217 214 213 213 214 215 215 216 218 221 224 226 228 229 229 227 227 220 225 224 233 235 251 239 241 242 243 215 212 217 252 237 235 255 263 264 284 288 295 300 300 299 295
204 205 205 204 203 203 206 208 210 211 212 213 214 215 214 214 214 216 226 225 226 220 218 224 216 191 182 163 114 346 327 284 255 243 246 254 297 300 295 297 301 305 302
203 199 198 197 197 197 198 198 197 197 198 200 202 204 205 207 207 205 196 200 191 167 163 176 186 186 189 102 299 317 286 220 214 218 226 271 298 301 301 301 300 301 300
198 193 191 191 191 192 191 190 193 196 197 196 192 190 186 186 169 169 172 175 172 168 169 173 192 208 241 261 255 260 236 217 218 234 269 291 304 301 301 303 301 301 301
197 192 190 191 194 194 194 193 193 192 191 187 184 178 181 180 168 170 168 168 166 165 172 197 206 209 213 228 227 228 226 238 250 266 282 291 299 298 300 301 298 298 299
196 194 194 195 196 198 196 194 192 188 186 184 182 179 176 170 170 174 179 174 182 185 184 197 204 218 233 229 230 234 240 253 259 275 290 296 299 301 302 301 299 298 299
196 198 199 198 197 198 199 193 189 189 186 182 181 177 173 173 176 188 188 189 192 191 190 197 207 209 227 230 233 239 251 263 278 290 297 302 306 308 308 308 307 305 306
200 201 203 201 200 200 198 196 190 188 189 184 183 179 174 175 183 189 188 195 187 193 194 200 207 213 220 233 246 264 276 281 288 295 300 305 310 314 317 320 321 320 319
204 204 204 203 199 198 197 197 195 192 189 188 184 182 180 180 183 186 186 189 187 185 190 195 200 208 224 255 270 277 281 287 292 298 306 311 313 314 316 316 317 316 316
207 205 204 203 203 200 197 195 196 198 202 197 190 189 185 181 179 183 187 184 190 188 192 190 203 225 239 257 267 273 285 297 309 312 312 315 317 319 319 319 318 318 317
207 205 205 203 202 201 196 189 186 193 189 191 191 190 183 183 186 183 183 179 182 188 193 198 200 208 228 253 274 290 305 314 320 324 325 323 320 321 323 324 324 323 321
212 207 205 203 202 200 195 191 181 180 184 185 185 188 189 186 187 182 178 177 176 178 179 188 201 221 246 269 295 311 319 324 326 327 326 325 326 325 326 327 327 325 325
211 211 208 205 204 200 198 191 188 182 178 179 183 189 184 185 182 180 174 170 172 174 186 201 213 234 263 292 308 317 323 327 327 325 325 322 323 325 326 326 326 323 323
209 209 207 206 203 201 198 193 187 185 184 182 179 179 180 182 178 174 165 166 169 179 189 205 229 258 292 313 321 326 327 328 327 324 323 322 323 324 324 323 321 319 320
212 211 208 205 202 200 198 193 186 188 187 183 181 180 176 177 176 170 165 165 168 176 184 189 210 250 300 318 328 326 326 326 326 324 321 318 318 318 319 319 319 319 321
211 209 208 204 203 197 195 191 188 186 184 181 176 175 175 177 176 167 161 163 169 172 174 187 204 253 298 318 321 325 326 325 324 323 320 317 316 319 320 318 317 320 321
211 208 206 204 200 195 195 191 185 182 182 176 172 170 171 179 171 163 161 163 163 168 178 196 243 300 318 321 325 326 324 322 320 318 317 317 316 317 316 315 316 317 318
210 207 205 202 197 193 193 188 184 181 181 178 175 172 174 175 168 161 160 161 163 173 192 224 280 314 317 319 323 323 321 319 317 316 315 313 313 314 313 313 315 317 319
210 207 204 199 196 191 189 186 184 180 179 176 173 174 174 170 165 160 160 160 165 180 214 259 298 310 316 318 318 315 313 312 312 311 312 311 310 309 310 311 311 313 316
208 204 202 197 194 190 186 184 180 177 177 178 174 172 170 169 163 161 163 164 172 195 233 283 301 310 312 312 311 309 310 310 310 309 309 309 308 306 307 308 309 313 314
206 201 198 194 192 188 185 182 178 176 176 175 173 171 170 165 162 159 169 177 191 225 267 291 300 305 305 307 306 305 307 308 307 307 307 307 305 306 307 308 309 312 313
Wind_Speed_850mb
94 93 87 82 79 75 73 72 68 61 56 55 52 52 50 49 49 48 44 42 45 41 41 45 49 35 43 39 38 32 32 31 34 39 39 33 34 38 37 35 39 40 44
74 81 79 73 72 69 65 63 65 62 59 56 56 55 54 51 45 48 47 45 44 41 41 39 32 40 42 40 34 29 29 27 33 34 32 30 29 35 27 32 32 34 44
69 70 70 67 66 62 60 60 61 61 60 59 58 55 49 46 47 48 45 46 46 42 40 35 36 35 38 31 28 32 28 28 29 29 27 26 29 23 26 25 26 30 29
53 58 63 63 61 58 55 57 57 57 56 54 49 47 44 45 46 47 48 45 43 45 38 37 35 38 32 36 34 31 26 24 26 28 23 24 19 22 21 20 25 32 37
55 59 61 60 58 56 53 52 50 47 45 44 45 46 45 43 40 43 43 43 44 38 35 40 33 20 23 22 21 20 21 23 19 19 14 17 18 17 21 23 36 34 42
50 52 55 56 54 52 50 48 45 43 43 43 44 43 40 38 40 38 38 39 40 36 34 22 19 20 13 9 9 9 9 6 8 10 12 12 12 13 19 27 33 39 46
49 48 50 50 50 48 46 44 42 39 37 35 34 33 31 32 34 38 39 36 33 28 25 20 16 18 17 14 3 9 13 7 9 12 11 7 12 17 26 32 32 39 42
52 51 52 51 50 48 46 43 40 38 35 33 33 32 30 30 32 31 29 26 22 22 23 25 24 19 14 0 5 9 8 8 13 9 8 10 21 29 27 31 40 47 51
57 58 58 55 53 50 46 43 40 38 37 35 32 31 30 29 32 32 30 31 31 28 26 21 13 12 11 5 4 7 13 14 11 10 15 23 29 30 35 42 47 51 56
63 60 56 52 48 46 45 44 42 40 39 39 40 38 36 32 36 36 33 33 31 26 21 16 16 15 10 7 9 13 13 13 16 20 28 32 37 41 47 46 47 49 51
64 59 56 53 51 49 48 46 46 46 46 44 43 42 36 36 38 37 37 31 24 21 18 19 18 16 13 14 13 13 14 18 26 30 35 41 45 45 44 43 44 45 47
66 63 60 58 57 54 51 51 51 50 50 48 47 46 45 43 36 35 31 28 26 23 21 24 24 22 20 18 17 15 19 24 28 35 40 42 41 41 42 40 41 42 44
69 66 63 62 58 56 55 55 56 57 55 54 51 49 46 43 41 36 33 29 27 24 23 22 21 20 18 16 15 15 20 29 31 33 35 37 39 42 45 46 46 48 46
76 72 68 65 62 60 60 58 58 60 58 55 54 50 49 49 46 42 37 33 31 28 25 23 19 17 16 16 17 20 21 23 25 27 30 33 36 39 42 46 47 49 52
82 79 74 71 68 67 64 63 60 55 51 55 52 50 54 51 45 38 33 30 26 24 22 20 17 16 14 12 14 15 17 18 22 25 28 32 36 39 40 42 45 48 49
92 86 81 80 76 74 73 68 57 49 47 42 41 41 45 43 44 40 33 28 27 22 18 15 14 12 10 11 12 15 18 22 24 27 32 35 36 37 38 40 42 43 44
99 96 91 88 80 83 82 78 77 67 58 53 50 50 46 45 44 41 37 34 29 23 19 16 14 12 11 11 12 16 20 24 27 29 31 33 35 37 38 40 41 42 43
100 96 94 89 87 89 88 85 80 81 78 69 61 54 49 46 45 42 39 34 29 24 19 16 12 11 9 10 13 16 19 21 23 26 28 32 35 37 38 40 42 45 47
100 96 94 90 89 92 89 87 82 81 81 79 72 64 59 55 51 45 40 30 25 20 16 11 8 6 6 8 11 15 18 21 24 27 31 35 38 40 41 42 43 44 45
93 92 93 92 93 96 91 87 83 84 82 76 76 67 64 56 54 47 37 28 21 16 11 8 6 3 6 9 13 17 21 24 27 30 35 38 39 39 41 43 43 45 44
94 94 96 96 102 94 93 87 87 85 82 78 69 65 61 58 52 42 34 27 23 19 14 10 6 5 7 11 15 20 24 28 31 34 38 42 42 41 42 43 44 42 43
95 97 99 98 98 96 92 90 90 87 83 80 78 71 62 55 47 40 37 32 26 19 14 8 5 6 11 16 21 25 29 33 35 37 39 41 43 45 44 41 40 41 41
92 94 97 100 98 98 94 92 91 91 87 82 75 72 67 58 51 46 37 30 23 16 9 6 6 11 16 22 27 31 36 38 40 42 42 43 44 44 43 41 40 39 39
87 92 100 101 99 98 100 97 95 90 85 80 75 69 62 56 49 43 36 29 20 12 8 8 11 16 23 28 33 37 39 42 44 45 45 46 45 43 42 42 39 38 39
87 93 99 99 104 106 104 99 94 89 84 77 73 68 62 54 47 38 31 24 18 12 9 11 17 22 28 33 37 40 42 45 45 45 45 45 45 43 41 40 40 37 36
87 93 98 103 105 103 101 101 96 89 81 74 68 62 57 49 41 33 24 19 14 10 11 16 21 27 31 35 38 41 44 44 44 45 47 46 44 42 41 40 39 40 38
Wind_Direction_850mb
241 240 239 237 237 239 241 242 242 243 244 245 245 244 244 244 245 248 249 251 254 261 265 266 268 270 273 278 282 277 279 275 279 284 287 296 288 288 306 307 291 281 272
241 236 236 235 235 239 242 241 238 238 242 242 242 243 243 244 241 245 248 244 254 252 257 265 264 268 265 273 274 278 277 274 271 282 284 291 291 291 309 306 288 276 268
235 231 227 228 232 234 234 232 232 234 237 239 240 242 242 238 241 241 243 253 247 246 249 255 254 259 269 266 256 271 264 267 268 274 275 283 292 293 302 292 285 288 286
220 219 221 223 226 229 230 229 229 230 232 235 238 239 231 234 236 241 240 248 242 252 252 251 261 274 270 264 265 277 271 268 268 270 274 284 281 294 300 311 313 298 287
218 218 221 222 223 221 223 225 226 226 229 233 234 233 232 230 230 237 238 237 243 237 244 262 270 259 272 273 281 279 278 272 261 265 275 291 295 312 320 319 310 299 301
217 214 213 213 214 215 215 216 218 221 224 226 228 229 229 227 227 220 225 224 233 235 251 239 241 242 243 215 212 217 252 237 235 255 263 264 284 288 295 300 300 299 295
204 205 205 204 203 203 206 208 210 211 212 213 214 215 214 214 214 216 226 225 226 220 218 224 216 191 182 163 114 346 327 284 255 243 246 254 297 300 295 297 301 305 302
203 199 198 197 197 197 198 198 197 197 198 200 202 204 205 207 207 205 196 200 191 167 163 176 186 186 189 102 299 317 286 220 214 218 226 271 298 301 301 301 300 301 300
198 193 191 191 191 192 191 190 193 196 197 196 192 190 186 186 169 169 172 175 172 168 169 173 192 208 241 261 255 260 236 217 218 234 269 291 304 301 301 303 301 301 301
197 192 190 191 194 194 194 193 193 192 191 187 184 178 181 180 168 170 168 168 166 165 172 197 206 209 213 228 227 228 226 238 250 266 282 291 299 298 300 301 298 298 299
196 194 194 195 196 198 196 194 192 188 186 184 182 179 176 170 170 174 179 174 182 185 184 197 204 218 233 229 230 234 240 253 259 275 290 296 299 301 302 301 299 298 299
196 198 199 198 197 198 199 193 189 189 186 182 181 177 173 173 176 188 188 189 192 191 190 197 207 209 227 230 233 239 251 263 278 290 297 302 306 308 308 308 307 305 306
200 201 203 201 200 200 198 196 190 188 189 184 183 179 174 175 183 189 188 195 187 193 194 200 207 213 220 233 246 264 276 281 288 295 300 305 310 314 317 320 321 320 319
204 204 204 203 199 198 197 197 195 192 189 188 184 182 180 180 183 186 186 189 187 185 190 195 200 208 224 255 270 277 281 287 292 298 306 311 313 314 316 316 317 316 316
207 205 204 203 203 200 197 195 196 198 202 197 190 189 185 181 179 183 187 184 190 188 192 190 203 225 239 257 267 273 285 297 309 312 312 315 317 319 319 319 318 318 317
207 205 205 203 202 201 196 189 186 193 189 191 191 190 183 183 186 183 183 179 182 188 193 198 200 208 228 253 274 290 305 314 320 324 325 323 320 321 323 324 324 323 321
212 207 205 203 202 200 195 191 181 180 184 185 185 188 189 186 187 182 178 177 176 178 179 188 201 221 246 269 295 311 319 324 326 327 326 325 326 325 326 327 327 325 325
211 211 208 205 204 200 198 191 188 182 178 179 183 189 184 185 182 180 174 170 172 174 186 201 213 234 263 292 308 317 323 327 327 325 325 322 323 325 326 326 326 323 323
209 209 207 206 203 201 198 193 187 185 184 182 179 179 180 182 178 174 165 166 169 179 189 205 229 258 292 313 321 326 327 328 327 324 323 322 323 324 324 323 321 319 320
212 211 208 205 202 200 198 193 186 188 187 183 181 180 176 177 176 170 165 165 168 176 184 189 210 250 300 318 328 326 326 326 326 324 321 318 318 318 319 319 319 319 321
211 209 208 204 203 197 195 191 188 186 184 181 176 175 175 177 176 167 161 163 169 172 174 187 204 253 298 318 321 325 326 325 324 323 320 317 316 319 320 318 317 320 321
211 208 206 204 200 195 195 191 185 182 182 176 172 170 171 179 171 163 161 163 163 168 178 196 243 300 318 321 325 326 324 322 320 318 317 317 316 317 316 315 316 317 318
210 207 205 202 197 193 193 188 184 181 181 178 175 172 174 175 168 161 160 161 163 173 192 224 280 314 317 319 323 323 321 319 317 316 315 313 313 314 313 313 315 317 319
210 207 204 199 196 191 189 186 184 180 179 176 173 174 174 170 165 160 160 160 165 180 214 259 298 310 316 318 318 315 313 312 312 311 312 311 310 309 310 311 311 313 316
208 204 202 197 194 190 186 184 180 177 177 178 174 172 170 169 163 161 163 164 172 195 233 283 301 310 312 312 311 309 310 310 310 309 309 309 308 306 307 308 309 313 314
206 201 198 194 192 188 185 182 178 176 176 175 173 171 170 165 162 159 169 177 191 225 267 291 300 305 305 307 306 305 307 308 307 307 307 307 305 306 307 308 309 312 313